Location: ?
(35.3436°N, 139.3168°E)
Time: 08:19:11
(UTC+00:00)

Gblst 52 Del rocket - Pass Details

Date: 29 October 2020
Orbit: 805 x 1365 km, 51.5° (Epoch: 02 December)

Event Time Altitude Azimuth Distance (km) Brightness Sun altitude
Exits shadow 19:32:26 24° 233° (SW) 1,624 5.3 -18.8°
Maximum altitude 19:35:52 81° 319° (NW) 863 4.1 -18.1°
Drops below altitude 10° 19:41:56 10° 47° (NE) 2,616 7.3 -16.9°
Sets 19:44:39 0° 48° (NE) 3,640 8.2 -16.4°
